K9JWM Weather Reports


Display with metric or nautical units.
time (UTC)temp
F
wind
direction
speed
MPH
gust
MPH
rain 1hr
in
rain 24hr
in
rain mn
in
humidity
%
barometer
mb
20260902044003 64 250 0.0 2.0 0.00 0.00 0.00 77 1012.3
20260902043031 64 249 0.0 2.0 0.00 0.00 0.00 76 1012.4
20260902043004 64 249 0.0 2.0 0.00 0.00 0.00 76 1012.4
20260902041536 64 249 0.0 1.0 0.00 0.00 0.00 76 1012.4
20260902041003 64 249 0.0 2.0 0.00 0.00 0.00 77 1012.4
20260902040030 64 249 1.0 1.0 0.00 0.00 0.00 76 1012.2
20260902040003 64 249 1.0 2.0 0.00 0.00 0.00 76 1012.2
20260902035007 65 249 0.0 2.0 0.00 0.00 0.00 72 1012.1
20260902034534 64 249 0.0 2.0 0.00 0.00 0.00 75 1012.1
20260902034004 64 249 0.0 2.0 0.00 0.00 0.00 76 1012.2
20260902033031 64 249 0.0 0.0 0.00 0.00 0.00 75 1012.0
20260902033003 64 249 0.0 2.0 0.00 0.00 0.00 75 1012.0
20260902032003 64 249 0.0 0.0 0.00 0.00 0.00 74 1012.0
20260902031531 64 249 0.0 0.0 0.00 0.00 0.00 74 1012.0
20260902030031 64 249 0.0 0.0 0.00 0.00 0.00 71 1012.1
20260902025004 64 249 0.0 0.0 0.00 0.00 0.00 69 1012.0
20260902024535 64 249 0.0 0.0 0.00 0.00 0.00 70 1011.8
20260902024011 65 249 0.0 2.0 0.00 0.00 0.00 70 1011.9
20260902023032 65 249 0.0 2.0 0.00 0.00 0.00 69 1012.0
20260902023004 65 249 0.0 3.0 0.00 0.00 0.00 69 1012.0
20260902022003 66 247 0.0 2.0 0.00 0.00 0.00 68 1012.0
20260902021530 66 247 0.0 2.0 0.00 0.00 0.00 68 1012.1
20260902021011 66 247 0.0 2.0 0.00 0.00 0.00 67 1012.1
20260902020031 67 247 0.0 0.0 0.00 0.00 0.00 66 1011.8
20260902020004 67 247 0.0 2.0 0.00 0.00 0.00 66 1011.8
20260902015004 67 247 0.0 0.0 0.00 0.00 0.00 64 1011.8
20260902014530 67 247 0.0 0.0 0.00 0.00 0.00 64 1011.6
20260902014003 68 247 0.0 0.0 0.00 0.00 0.00 62 1011.6
20260902013032 68 247 0.0 0.0 0.00 0.00 0.00 63 1011.4
20260902013004 68 247 0.0 0.0 0.00 0.00 0.00 63 1011.4
20260902012004 69 247 0.0 2.0 0.00 0.00 0.00 62 1011.3
20260902011530 69 247 0.0 0.0 0.00 0.00 0.00 61 1011.3
20260902011004 70 247 0.0 3.0 0.00 0.00 0.00 60 1011.3
20260902010031 73 246 1.0 3.0 0.00 0.00 0.00 56 1011.3
20260902010003 73 246 1.0 3.0 0.00 0.00 0.00 56 1011.3
20260902005004 74 252 3.0 5.0 0.00 0.00 0.00 52 1011.2
20260902004533 75 247 3.0 3.0 0.00 0.00 0.00 54 1011.2
20260902004003 75 244 5.0 7.0 0.00 0.00 0.00 53 1011.2
20260902003030 76 249 2.0 3.0 0.00 0.00 0.00 50 1011.1
20260902003003 76 249 3.0 8.0 0.00 0.00 0.00 50 1011.1
20260902002003 77 256 5.0 12.0 0.00 0.00 0.00 49 1011.2
20260902001531 77 246 5.0 6.0 0.00 0.00 0.00 51 1011.3
20260902001003 77 249 5.0 12.0 0.00 0.00 0.00 52 1011.3
20260902000030 77 249 6.0 10.0 0.00 0.00 0.00 48 1011.3
20260902000003 77 249 6.0 10.0 0.00 0.00 0.00 48 1011.3
20260901235010 77 257 4.0 7.0 0.00 0.00 0.00 50 1011.2
20260901234532 78 256 5.0 5.0 0.00 0.00 0.00 50 1011.1
20260901233033 78 245 5.0 6.0 0.00 0.00 0.00 50 1011.1
20260901233006 78 245 4.0 6.0 0.00 0.00 0.00 50 1011.1
20260901232005 78 249 5.0 9.0 0.00 0.00 0.00 50 1011.0
20260901231533 79 240 3.0 6.0 0.00 0.00 0.00 48 1010.8
20260901231005 79 257 4.0 8.0 0.00 0.00 0.00 49 1010.7
20260901230032 79 251 6.0 9.0 0.00 0.00 0.00 47 1010.6
20260901230008 79 251 5.0 13.0 0.00 0.00 0.00 47 1010.6
20260901225005 79 248 8.0 17.0 0.00 0.00 0.00 52 1010.6
20260901224533 79 245 10.0 12.0 0.00 0.00 0.00 46 1010.7
20260901224005 79 243 8.0 12.0 0.00 0.00 0.00 53 1010.9
20260901223032 79 252 8.0 10.0 0.00 0.00 0.00 48 1010.9
20260901222006 80 257 6.0 14.0 0.00 0.00 0.00 46 1010.8
20260901221534 80 269 9.0 10.0 0.00 0.00 0.00 43 1010.8
20260901221006 80 247 7.0 12.0 0.00 0.00 0.00 44 1010.8
20260901220032 80 251 8.0 9.0 0.00 0.00 0.00 43 1010.8
20260901220005 80 251 8.0 12.0 0.00 0.00 0.00 43 1010.8
20260901215005 81 259 8.0 15.0 0.00 0.00 0.00 44 1010.7
20260901214537 81 263 9.0 12.0 0.00 0.00 0.00 41 1010.8
20260901213033 81 255 8.0 9.0 0.00 0.00 0.00 41 1010.9
20260901213007 81 255 8.0 15.0 0.00 0.00 0.00 41 1010.9
20260901212005 81 253 8.0 20.0 0.00 0.00 0.00 41 1010.9
20260901211533 81 249 8.0 14.0 0.00 0.00 0.00 40 1011.0
20260901211005 81 264 10.0 15.0 0.00 0.00 0.00 43 1010.9
20260901210032 80 249 13.0 15.0 0.00 0.00 0.00 39 1011.0
20260901210005 80 249 13.0 20.0 0.00 0.00 0.00 39 1011.0
20260901205005 81 227 13.0 22.0 0.00 0.00 0.00 40 1010.9
20260901204535 80 243 13.0 16.0 0.00 0.00 0.00 42 1011.0
20260901203033 80 246 10.0 12.0 0.00 0.00 0.00 43 1010.9
20260901202006 81 245 12.0 18.0 0.00 0.00 0.00 40 1011.0
20260901201532 81 240 13.0 13.0 0.00 0.00 0.00 40 1011.0
20260901201005 81 234 15.0 20.0 0.00 0.00 0.00 42 1011.1
20260901200031 81 238 12.0 20.0 0.00 0.00 0.00 38 1011.0
20260901200005 81 238 12.0 20.0 0.00 0.00 0.00 38 1011.0
20260901194532 82 261 14.0 20.0 0.00 0.00 0.00 44 1011.2
20260901194005 82 229 12.0 22.0 0.00 0.00 0.00 39 1011.2
20260901193032 82 252 12.0 20.0 0.00 0.00 0.00 38 1011.1
20260901193005 82 252 12.0 20.0 0.00 0.00 0.00 38 1011.1
20260901191532 82 227 12.0 18.0 0.00 0.00 0.00 37 1011.0
20260901191005 82 242 10.0 17.0 0.00 0.00 0.00 42 1011.1
20260901190032 82 254 15.0 18.0 0.00 0.00 0.00 42 1011.2
20260901190005 82 254 13.0 21.0 0.00 0.00 0.00 42 1011.2
20260901185008 81 242 13.0 20.0 0.00 0.00 0.00 43 1011.2
20260901184532 81 251 15.0 20.0 0.00 0.00 0.00 43 1011.3
20260901184006 81 240 10.0 22.0 0.00 0.00 0.00 40 1011.2
20260901183033 81 266 9.0 12.0 0.00 0.00 0.00 43 1011.5
20260901183005 81 266 12.0 22.0 0.00 0.00 0.00 43 1011.5
20260901182006 81 234 14.0 20.0 0.00 0.00 0.00 43 1011.6
20260901181532 81 234 13.0 14.0 0.00 0.00 0.00 43 1011.5
20260901181005 81 267 6.0 18.0 0.00 0.00 0.00 43 1011.5
20260901180032 81 270 10.0 14.0 0.00 0.00 0.00 39 1011.7
20260901175005 81 254 5.0 14.0 0.00 0.00 0.00 42 1011.8
20260901174532 81 264 10.0 14.0 0.00 0.00 0.00 40 1011.8
20260901173032 81 257 9.0 9.0 0.00 0.00 0.00 43 1012.1
20260901173005 81 257 10.0 16.0 0.00 0.00 0.00 43 1012.1
20260901172012 80 259 5.0 15.0 0.00 0.00 0.00 44 1012.1
20260901171534 79 237 9.0 13.0 0.00 0.00 0.00 46 1012.2
20260901170032 80 244 8.0 10.0 0.00 0.00 0.00 47 1012.2
20260901170005 80 244 9.0 12.0 0.00 0.00 0.00 47 1012.2
20260901165005 79 238 7.0 15.0 0.00 0.00 0.00 48 1012.3
20260901164532 79 238 7.0 7.0 0.00 0.00 0.00 45 1012.4
20260901163033 78 245 6.0 8.0 0.00 0.00 0.00 52 1012.5
20260901163006 78 245 6.0 15.0 0.00 0.00 0.00 52 1012.5
20260901162005 77 268 3.0 13.0 0.00 0.00 0.00 52 1012.4
20260901161533 77 242 6.0 8.0 0.00 0.00 0.00 56 1012.5
20260901161005 77 231 7.0 10.0 0.00 0.00 0.00 55 1012.5
20260901160032 76 245 5.0 5.0 0.00 0.00 0.00 56 1012.6
20260901160005 76 245 5.0 10.0 0.00 0.00 0.00 56 1012.6
20260901154533 75 236 5.0 9.0 0.00 0.00 0.00 62 1012.7
20260901153033 74 238 2.0 3.0 0.00 0.00 0.00 67 1012.7
20260901153005 74 238 2.0 6.0 0.00 0.00 0.00 67 1012.7
20260901152006 73 229 6.0 7.0 0.00 0.00 0.00 68 1012.8
20260901151532 72 241 2.0 5.0 0.00 0.00 0.00 70 1013.0
20260901150033 71 229 3.0 3.0 0.00 0.00 0.00 73 1012.9
20260901150005 71 229 4.0 6.0 0.00 0.00 0.00 73 1012.9
20260901145012 70 250 5.0 7.0 0.00 0.00 0.00 72 1012.8
20260901144422 70 239 3.0 3.0 0.00 0.00 0.00 76 1012.8
20260901144005 69 225 3.0 5.0 0.00 0.00 0.00 75 1012.8
20260901143005 69 225 4.0 6.0 0.00 0.00 0.00 79 1012.8
20260901142922 69 226 3.0 5.0 0.00 0.00 0.00 78 1012.8
20260901142005 68 236 3.0 3.0 0.00 0.00 0.00 81 1012.8
20260901141422 67 227 3.0 3.0 0.00 0.00 0.00 83 1012.8
20260901141005 67 232 3.0 3.0 0.00 0.00 0.00 83 1012.8
20260901140005 66 225 3.0 5.0 0.00 0.00 0.00 84 1012.7
20260901135922 66 224 3.0 3.0 0.00 0.00 0.00 85 1012.8
20260901135016 65 252 3.0 3.0 0.00 0.00 0.00 86 1012.9
20260901134420 65 273 1.0 2.0 0.00 0.00 0.00 88 1013.0
20260901134005 65 267 2.0 3.0 0.00 0.00 0.00 88 1012.9
20260901133005 63 238 2.0 3.0 0.00 0.00 0.00 89 1013.0
20260901132921 63 236 2.0 3.0 0.00 0.00 0.00 90 1013.0
20260901132005 63 240 2.0 3.0 0.00 0.00 0.00 91 1012.9
20260901131425 62 243 2.0 3.0 0.00 0.00 0.00 91 1012.9
20260901131005 62 243 2.0 3.0 0.00 0.00 0.00 91 1012.8
20260901130004 61 246 3.0 3.0 0.00 0.00 0.00 92 1012.7
20260901125926 61 247 2.0 3.0 0.00 0.00 0.00 93 1012.7
20260901125005 61 247 2.0 3.0 0.00 0.00 0.00 93 1012.7
20260901124420 61 265 1.0 1.0 0.00 0.00 0.00 94 1012.5
20260901123005 59 265 0.0 2.0 0.00 0.00 0.00 94 1012.5
20260901122922 59 265 0.0 2.0 0.00 0.00 0.00 94 1012.4
20260901122005 59 272 0.0 2.0 0.00 0.00 0.00 94 1012.5
20260901121422 59 272 0.0 0.0 0.00 0.00 0.00 94 1012.4
20260901121005 58 272 0.0 2.0 0.00 0.00 0.00 94 1012.5
20260901120021 57 272 0.0 0.0 0.00 0.00 0.00 94 1012.5
20260901120004 57 272 0.0 2.0 0.00 0.00 0.00 94 1012.5
20260901115006 57 272 0.0 0.0 0.00 0.00 0.00 94 1012.3
20260901114005 56 272 0.0 0.0 0.00 0.00 0.00 94 1012.1
20260901113005 56 272 0.0 0.0 0.00 0.00 0.00 94 1011.9
20260901112926 56 272 0.0 0.0 0.00 0.00 0.00 94 1011.9
20260901112006 56 272 0.0 0.0 0.00 0.00 0.00 93 1011.7
20260901111421 57 272 0.0 0.0 0.00 0.00 0.00 94 1011.6
20260901111012 57 272 0.0 0.0 0.00 0.00 0.00 94 1011.6
20260901105922 57 272 0.0 0.0 0.00 0.00 0.00 94 1011.6
20260901105012 57 272 0.0 0.0 0.00 0.00 0.00 93 1011.6
20260901104421 57 272 0.0 0.0 0.00 0.00 0.00 93 1011.6
20260901104012 57 272 0.0 0.0 0.00 0.00 0.00 93 1011.7
20260901103004 58 272 0.0 0.0 0.00 0.00 0.00 94 1011.6
20260901102921 58 272 0.0 0.0 0.00 0.00 0.00 94 1011.6
20260901102005 58 272 0.0 0.0 0.00 0.00 0.00 94 1011.6
20260901101422 58 272 0.0 0.0 0.00 0.00 0.00 94 1011.6
20260901101005 58 272 0.0 0.0 0.00 0.00 0.00 94 1011.6
20260901100022 58 272 0.0 0.0 0.00 0.00 0.00 94 1011.5
20260901100004 58 272 0.0 0.0 0.00 0.00 0.00 94 1011.5
20260901095005 58 272 0.0 0.0 0.00 0.00 0.00 94 1011.5
20260901094006 59 272 0.0 0.0 0.00 0.00 0.00 94 1011.5
20260901092940 59 272 0.0 0.0 0.00 0.00 0.00 93 1011.3
20260901092012 59 272 0.0 0.0 0.00 0.00 0.00 94 1011.4
20260901091431 60 272 0.0 0.0 0.00 0.00 0.00 94 1011.4
20260901091012 60 272 0.0 0.0 0.00 0.00 0.00 94 1011.4
20260901090004 60 272 0.0 0.0 0.00 0.00 0.00 94 1011.4
20260901085920 60 272 0.0 0.0 0.00 0.00 0.00 94 1011.4
20260901085005 60 272 0.0 0.0 0.00 0.00 0.00 94 1011.4
20260901084420 60 272 0.0 0.0 0.00 0.00 0.00 94 1011.4
20260901084005 60 272 0.0 0.0 0.00 0.00 0.00 94 1011.5
20260901083004 61 272 0.0 0.0 0.00 0.00 0.00 94 1011.5
20260901082921 61 272 0.0 0.0 0.00 0.00 0.00 94 1011.5
20260901082005 61 272 0.0 0.0 0.00 0.00 0.00 94 1011.5
20260901081425 61 272 0.0 0.0 0.00 0.00 0.00 94 1011.4
20260901080005 60 272 0.0 0.0 0.00 0.00 0.00 94 1011.4
20260901075921 60 272 0.0 0.0 0.00 0.00 0.00 94 1011.4
20260901075005 60 272 0.0 0.0 0.00 0.00 0.00 93 1011.5
20260901074422 60 272 0.0 0.0 0.00 0.00 0.00 93 1011.4
20260901074004 61 272 0.0 0.0 0.00 0.00 0.00 92 1011.5
20260901073005 62 272 0.0 0.0 0.00 0.00 0.00 94 1011.7
20260901072922 62 272 0.0 0.0 0.00 0.00 0.00 94 1011.7
20260901072012 62 272 0.0 0.0 0.00 0.00 0.00 94 1011.6
20260901071435 62 272 0.0 0.0 0.00 0.00 0.00 94 1011.6
20260901071012 62 272 0.0 1.0 0.00 0.00 0.00 94 1011.6
20260901070005 62 272 0.0 0.0 0.00 0.00 0.00 94 1011.6
20260901065921 62 272 0.0 0.0 0.00 0.00 0.00 94 1011.6
20260901065005 62 272 0.0 0.0 0.00 0.00 0.00 93 1011.6
20260901064425 62 272 0.0 0.0 0.00 0.00 0.00 93 1011.7
20260901063005 62 272 1.0 2.0 0.00 0.00 0.00 93 1011.6
20260901062923 62 272 1.0 2.0 0.00 0.00 0.00 92 1011.6
20260901061421 63 272 0.0 0.0 0.00 0.00 0.00 94 1011.4
20260901061007 63 272 0.0 2.0 0.00 0.00 0.00 94 1011.5
20260901060005 63 272 0.0 0.0 0.00 0.00 0.00 93 1011.4
20260901055921 63 272 0.0 0.0 0.00 0.00 0.00 93 1011.4
20260901055004 63 272 0.0 0.0 0.00 0.00 0.00 93 1011.4
20260901054425 63 272 0.0 0.0 0.00 0.00 0.00 93 1011.4
20260901054011 63 272 0.0 1.0 0.00 0.00 0.00 93 1011.4
20260901052922 63 272 0.0 0.0 0.00 0.00 0.00 92 1011.4
20260901052005 63 272 0.0 0.0 0.00 0.00 0.00 93 1011.5
20260901051521 64 272 0.0 0.0 0.00 0.00 0.00 93 1011.5
20260901051006 64 272 0.0 0.0 0.00 0.00 0.00 93 1011.5
20260901050020 64 272 0.0 2.0 0.00 0.00 0.00 93 1011.4
20260901050005 64 272 0.0 2.0 0.00 0.00 0.00 93 1011.4
20260901045004 63 272 0.0 0.0 0.00 0.00 0.00 91 1011.2